Regional Weather Roundup
Issued by NWS

Home | Current Version | Previous Version | Text Only | Print | Product List | Glossary Off
Versions: 1 2 3 4 5 6 7 8 9 10 11 12 13 14 15 16 17 18 19 20 21 22 23 24 25 26 27 28 29 30 31 32 33 34 35 36 37 38 39 40 41 42 43 44 45 46 47 48 49 50

000
ASUS43 KTOP 260408
RWRKS

WEATHER ROUNDUP FOR KANSAS
NATIONAL WEATHER SERVICE GOODLAND KS
1100 PM CDT WED APR 25 2018

NOTE:  "FAIR" INDICATES FEW OR NO CLOUDS BELOW 12,000 FEET WITH NO
SIGNIFICANT WEATHER AND/OR OBSTRUCTIONS TO VISIBILITY.

KSZ001>006-013>018-027>032-041>047-260500-
NORTHWEST KANSAS

CITY           SKY/WX    TMP DP  RH WIND       PRES   REMARKS
GOODLAND       CLEAR     42  33  70 S12       30.04F
HAYS           CLEAR     41  35  79 S7        30.07F
HILL CITY      CLEAR     45  35  68 S3        30.06F
RUSSELL        CLEAR     41  40  96 SE9       30.06F
$$

KSZ061>065-074>080-084>089-260500-
SOUTHWEST KANSAS

CITY           SKY/WX    TMP DP  RH WIND       PRES   REMARKS
DODGE CITY     CLEAR     45  34  65 S6        30.08F
ELKHART        CLEAR     41  34  78 S9        30.11F
GARDEN CITY    CLEAR     46  35  65 SE7       30.08F
GREAT BEND     CLEAR     41  38  89 SE5       30.08F
LIBERAL        CLEAR     43  36  76 S7        30.10F
PRATT          CLEAR     41  38  87 CALM      30.09F
$$

KSZ066>073-081>083-090>101-260500-
SOUTHEAST KANSAS

CITY           SKY/WX    TMP DP  RH WIND       PRES   REMARKS
CHANUTE        CLOUDY    49  48  97 N9        30.04F FOG
COFFEYVILLE    CLOUDY    50  48  93 NW14      30.03F
HUTCHINSON     CLEAR     36  36 100 CALM      30.08F FOG
MEDICINE LODGE   N/A     43  40  89 CALM      30.09F
NEWTON         CLOUDY    43  41  93 NW5       30.08F
PARSONS        CLOUDY    49  49 100 N12       30.04F
WICHITA INTL   MOCLDY    47  43  86 N6        30.09S
WICHITA JABRA  CLOUDY    46  45  96 NW5       30.08S
WICHITA MCCONL CLOUDY    46  44  92 N7        30.08S
WINFIELD       CLOUDY    47  45  93 NW13      30.08F
$$

KSZ007>012-019>026-033>040-048>060-102>105-260500-
NORTHEAST KANSAS

CITY           SKY/WX    TMP DP  RH WIND       PRES   REMARKS
CONCORDIA      CLEAR     41  38  89 S9        30.05F
EMPORIA        PTCLDY    45  43  93 NW5       30.05F
LAWRENCE       FOG       41  41 100 CALM      30.04F VSB 1/2
MANHATTAN      CLEAR     40  39  97 CALM      30.07F
MARYSVILLE     CLEAR     41  37  87 W5        30.07S
OLATHE IND     CLOUDY    45  44  97 NW3       30.04F
OLATHE EXE     CLOUDY    48  47  96 NW5       30.03F
SALINA         CLEAR     42  41  96 SW5       30.09F
TOPEKA BILLARD CLEAR     46  45  96 CALM      30.05F
TOPEKA FORBES  CLEAR     42  41  96 W3        30.04F
$$




USA.gov is the U.S. government's official web portal to all federal, state and local government web resources and services.